Wind_Speed
33 34 34 31 31 33 34 35 36 34 31 30 31 30 31 32 31 30 30 31 30 29 29 29 29 28 26 26 26 26 25 24 23 22 21 17 13 12 15 17 19 20 20 20 20 20 20 19 19 18 17 17 17 16 15 15 15 16 17 18 17 16 16 13 13 17 19 18 22 25 24 24 26 26 26 25 23 23 23 22 22 22 23 25 26
33 35 35 34 34 35 34 34 35 33 29 29 30 30 31 33 33 31 30 30 30 30 29 29 29 28 26 26 27 27 27 26 25 23 22 20 16 13 13 14 16 18 20 22 21 21 21 21 20 20 20 19 19 18 17 15 14 14 16 17 17 17 19 18 15 16 19 19 19 24 26 26 27 27 26 25 23 23 25 26 26 26 26 27 28
34 35 35 35 35 35 33 32 33 32 30 29 29 29 29 31 33 33 31 29 30 31 30 29 29 28 27 27 27 27 27 27 26 25 24 23 21 18 17 17 16 17 19 22 22 21 21 22 21 19 19 20 20 20 20 19 17 16 16 17 17 17 18 21 19 17 20 21 18 18 20 21 24 28 28 28 28 27 27 29 28 27 29 30 30
33 35 35 34 33 33 32 31 31 31 30 29 28 28 27 27 30 33 31 27 28 31 31 29 29 28 28 28 27 27 27 26 27 26 26 25 24 22 21 20 19 18 18 20 20 21 22 22 20 18 17 19 20 20 21 21 20 20 19 19 20 20 18 20 21 20 19 20 20 20 21 22 26 29 29 28 29 29 29 31 29 28 30 31 31
32 34 35 33 31 31 32 31 30 31 30 29 29 29 27 25 27 31 30 26 26 29 30 29 29 28 28 28 28 27 27 26 26 26 26 25 25 23 22 22 21 20 20 18 17 20 22 22 21 18 16 18 19 19 20 21 21 20 20 20 20 21 19 20 22 21 19 20 22 23 25 26 27 29 29 28 26 25 27 30 29 29 31 31 30
32 33 34 33 31 31 32 31 31 32 31 29 28 28 27 25 25 27 28 27 25 25 28 29 30 29 29 29 28 28 27 27 27 27 25 25 25 23 22 21 22 22 22 20 17 19 21 22 21 18 17 18 20 19 19 20 20 20 21 22 21 20 20 21 21 21 20 21 22 23 24 24 23 24 26 27 24 22 24 27 26 27 30 31 30
32 33 33 32 30 31 32 33 33 32 31 30 28 27 27 26 25 26 26 27 25 23 25 28 30 31 30 29 29 28 28 28 28 28 27 25 25 24 22 20 21 22 23 22 20 19 21 22 21 20 19 21 22 21 19 18 18 19 22 22 20 18 18 18 18 19 20 20 21 21 21 19 18 18 21 24 24 23 24 24 23 25 28 28 29
32 33 33 32 30 32 34 35 36 33 31 31 30 28 27 27 26 26 26 26 26 25 25 26 28 29 30 30 29 28 28 29 29 28 28 27 25 25 23 21 20 20 22 22 21 20 21 21 21 21 21 23 23 22 21 20 17 18 19 18 16 16 17 17 17 19 20 21 21 21 20 18 17 17 16 17 18 19 20 20 22 27 29 29 30
33 33 32 31 32 36 38 36 36 34 31 33 34 30 28 28 28 27 28 28 27 26 26 24 25 27 29 30 29 28 28 29 30 29 29 28 27 24 23 23 22 20 20 21 19 20 21 21 20 21 22 24 25 23 24 23 21 19 19 17 15 16 17 18 18 19 20 20 20 21 21 19 17 17 15 13 14 17 18 17 23 29 30 30 33
34 33 32 32 35 40 41 37 35 34 33 34 35 33 29 28 28 28 29 29 27 26 26 24 23 25 27 29 29 28 29 30 32 31 30 29 27 23 22 23 24 22 21 20 20 20 21 21 20 22 24 26 27 26 26 25 25 24 24 21 18 17 19 20 21 21 21 21 20 20 21 20 19 19 18 15 14 15 14 16 24 30 27 26 32
35 33 31 33 38 42 40 37 35 35 35 33 33 33 30 28 27 28 29 29 27 26 26 25 25 24 24 25 27 28 30 32 33 32 31 30 27 23 21 22 23 23 22 21 21 21 20 20 20 21 24 26 27 27 27 26 26 26 26 26 24 23 23 23 23 23 23 23 22 20 20 22 22 21 20 18 13 9 12 18 22 25 25 20 23
34 32 31 34 39 40 37 35 34 34 34 34 34 35 32 28 27 28 29 29 28 27 26 26 26 25 23 23 25 27 30 33 33 32 31 31 29 26 22 20 20 21 21 21 21 20 20 20 19 19 22 25 25 25 26 27 27 27 27 27 27 27 28 27 26 25 25 25 25 24 23 24 25 22 21 20 13 9 21 31 26 23 26 22 20
32 31 31 33 36 37 35 34 34 34 35 36 36 36 33 30 29 29 29 28 27 27 27 27 26 26 25 24 25 26 27 30 32 32 31 30 30 28 26 22 20 20 20 20 20 20 20 20 20 21 23 24 25 25 26 27 28 28 28 27 28 30 30 30 30 29 29 29 28 28 26 25 26 25 24 25 18 13 26 38 33 25 25 25 29
30 31 31 33 35 36 36 35 34 35 37 37 35 34 33 32 30 29 27 26 27 28 28 27 26 26 26 26 26 26 26 28 31 32 31 30 29 29 29 26 23 22 22 21 21 21 21 21 21 22 23 23 24 26 26 26 26 23 23 23 25 26 26 28 29 30 32 32 32 33 32 32 33 30 29 31 24 16 24 37 37 31 30 32 36
30 31 31 32 35 36 36 35 34 34 36 35 34 32 32 31 30 28 26 26 27 29 29 27 26 26 27 27 26 26 28 30 31 31 31 30 29 29 29 28 25 24 24 23 23 23 23 23 22 24 24 22 24 26 25 25 23 19 19 20 21 22 22 24 26 27 29 30 32 35 37 36 35 33 32 31 26 21 26 35 37 34 34 36 34
28 31 31 32 34 35 35 34 33 32 32 32 31 30 30 30 31 29 26 25 25 27 27 27 26 27 29 28 26 27 28 30 33 33 32 30 29 28 30 30 28 26 25 25 25 25 25 24 24 26 25 25 28 28 27 26 24 21 21 22 21 22 23 23 26 28 28 29 31 34 35 33 32 33 32 31 29 28 27 28 29 29 30 31 29
28 31 31 32 33 33 34 34 33 31 30 30 30 29 29 30 31 30 27 25 24 24 26 27 27 28 28 27 27 28 28 29 32 34 32 31 30 29 30 30 29 28 28 27 26 26 26 27 27 27 27 28 30 30 28 28 26 23 22 22 22 23 23 24 26 27 26 26 27 28 29 31 33 34 34 33 33 31 27 25 26 27 25 24 24
29 31 32 32 32 32 33 35 34 32 31 31 30 29 29 29 29 29 28 26 25 24 24 25 26 26 26 27 29 29 26 27 31 33 32 31 31 30 31 30 28 29 30 30 29 28 28 29 29 29 29 30 30 29 28 27 26 25 23 22 22 23 23 23 25 25 24 24 26 29 31 33 34 34 33 30 25 22 22 24 24 23 23 22 23
31 33 32 30 30 32 34 36 35 32 31 31 30 29 29 28 28 27 27 26 25 23 23 23 24 24 25 27 29 30 26 25 28 31 32 31 31 31 31 29 27 28 30 30 29 29 31 32 32 32 32 32 30 29 29 28 27 25 23 21 22 22 22 22 24 28 28 27 29 32 33 31 28 25 24 22 17 14 15 18 19 19 22 23 24
34 34 32 30 31 34 35 37 36 32 29 30 29 28 29 28 26 25 25 24 23 22 22 23 23 23 24 25 27 28 27 25 27 30 31 31 31 31 30 29 27 27 28 27 25 26 29 32 32 32 32 30 29 28 28 29 28 26 22 20 21 20 19 20 25 30 33 32 29 28 27 25 21 18 16 15 14 12 11 13 15 17 19 22 23
36 34 32 30 30 33 33 34 35 32 30 31 30 27 27 26 24 24 24 23 23 22 22 22 22 22 23 23 24 25 26 26 27 29 31 31 31 31 32 31 29 27 25 25 24 23 24 26 29 30 29 27 26 26 26 26 27 26 24 22 22 22 21 22 24 26 29 30 28 25 22 20 17 15 15 16 16 15 14 14 15 16 18 20 23
34 32 31 28 27 29 29 30 32 30 27 28 27 25 24 24 23 23 23 23 23 22 22 22 21 21 21 21 22 23 25 27 28 29 30 31 31 31 32 33 32 28 24 23 23 23 22 23 26 28 27 26 25 24 23 22 21 22 22 22 23 24 23 20 18 17 18 20 20 19 17 16 16 15 17 19 19 19 19 18 18 18 18 19 21
32 30 30 27 26 27 27 28 30 28 25 27 28 26 25 24 23 23 23 23 22 22 23 23 22 21 20 21 22 23 24 26 29 30 30 31 32 32 32 33 33 31 27 24 22 22 23 24 25 27 26 24 23 22 20 19 18 18 18 18 19 19 17 14 12 11 11 10 10 11 12 12 13 15 17 19 20 22 23 22 22 21 21 21 22
30 29 29 26 25 26 26 27 29 27 25 28 30 27 24 23 23 23 23 23 22 23 24 24 23 22 23 23 23 23 23 24 28 31 32 32 31 32 32 32 32 33 32 28 24 22 21 22 24 25 24 22 20 19 17 16 16 15 15 15 15 14 11 9 6 5 4 4 5 7 8 9 11 13 16 19 21 23 23 22 23 24 24 24 25
27 26 25 25 25 25 24 26 28 27 26 28 29 26 24 23 23 23 24 24 24 24 24 23 23 23 24 23 23 23 24 23 23 28 32 32 31 31 31 31 31 32 33 32 28 23 22 22 23 23 21 18 17 15 15 14 13 13 13 13 12 9 6 5 4 2 1 2 4 5 7 9 11 14 16 19 20 20 19 20 23 26 24 24 25
26 25 24 24 25 25 24 25 26 26 26 27 28 28 26 24 23 23 24 24 25 24 23 23 23 23 23 23 23 23 22 20 20 23 28 30 31 30 30 30 30 30 32 33 30 26 25 24 22 19 17 16 14 13 13 12 12 12 11 8 6 6 6 5 3 1 0 1 3 5 7 9 11 14 17 18 18 16 16 18 22 23 22 22 25
26 24 23 24 24 25 25 24 24 24 25 25 26 26 25 24 23 23 23 23 24 24 24 23 23 23 22 22 23 22 21 19 18 20 23 28 30 30 30 31 31 32 34 35 33 29 25 22 19 16 15 13 12 12 12 11 10 9 8 9 9 9 7 5 4 3 2 2 3 5 8 10 12 13 15 16 15 15 16 18 19 20 21 23 25
26 23 23 23 23 23 24 24 23 23 23 24 24 24 24 24 24 24 25 25 24 24 25 24 24 23 22 21 20 20 19 19 19 21 24 27 29 30 31 32 32 33 34 33 31 28 23 18 16 15 14 13 12 12 11 10 10 10 12 12 11 9 7 6 5 4 4 4 5 8 9 10 10 12 13 14 15 16 16 17 17 19 21 22 22
26 23 23 22 21 22 22 23 23 22 21 23 25 25 25 25 24 24 26 29 29 27 25 24 24 23 22 21 19 17 16 19 23 26 28 28 28 29 30 31 31 33 32 29 27 25 21 18 17 17 16 15 15 14 13 13 14 14 14 12 9 7 6 5 4 4 5 6 6 7 8 8 10 11 12 13 16 17 16 16 17 18 19 21 22
22 21 21 19 19 20 20 20 21 20 19 22 26 26 26 26 25 24 24 28 31 31 27 25 25 24 22 21 21 21 21 23 27 27 26 27 26 26 27 26 27 29 29 27 24 21 18 18 18 18 18 17 17 16 16 16 15 14 12 11 8 6 6 5 4 4 5 6 5 5 6 8 9 10 10 12 15 16 15 15 16 16 17 19 21
16 16 17 17 19 21 19 17 18 19 19 23 27 26 23 21 24 25 24 24 28 31 31 29 28 27 25 23 24 25 26 26 27 25 23 23 23 24 25 24 24 25 25 24 22 19 18 17 16 16 16 16 16 16 16 15 14 12 11 9 8 7 6 5 5 5 5 4 3 4 6 7 8 8 9 10 12 14 14 14 15 16 16 17 19
13 13 14 16 20 20 17 16 19 20 20 23 25 24 20 15 16 20 22 23 24 27 30 31 30 30 29 26 26 26 26 25 26 24 22 20 20 22 24 24 22 20 20 21 21 19 17 16 15 15 14 14 15 18 17 14 12 11 10 9 7 7 6 6 6 6 4 3 3 4 6 7 7 6 6 7 9 11 12 12 13 14 15 15 16
11 12 12 13 16 16 13 14 18 20 21 21 21 20 18 14 13 14 16 17 19 22 25 27 28 29 28 27 26 26 25 24 24 23 20 18 19 21 21 20 18 16 17 20 19 17 15 13 12 14 14 13 14 15 14 12 11 10 9 8 7 7 7 7 7 6 5 5 5 5 5 5 6 6 6 6 7 8 9 10 11 12 12 13 14
9 10 11 11 11 11 11 13 15 17 19 19 18 17 16 15 15 15 14 12 12 14 16 20 22 24 25 25 25 25 24 23 21 20 19 17 18 19 19 17 17 18 19 18 17 15 14 13 14 14 14 13 12 12 12 13 12 11 10 9 8 7 6 6 6 5 4 5 4 4 4 3 4 5 6 6 6 6 8 9 9 10 11 11 13
8 8 9 9 8 8 10 12 12 13 15 15 15 15 15 14 14 14 14 12 11 10 10 12 15 17 20 22 23 23 22 21 19 18 17 18 18 19 20 20 20 19 18 17 18 18 18 18 19 17 15 13 12 12 12 13 12 10 9 8 6 6 5 5 5 5 4 3 2 3 3 2 3 3 4 6 6 7 8 8 9 10 10 10 11
7 7 7 6 6 7 8 8 9 11 12 13 13 14 13 12 14 14 13 12 11 12 11 10 9 10 12 15 17 18 17 17 16 16 17 19 20 23 25 25 22 19 17 17 18 18 18 18 17 15 14 13 12 11 10 9 8 7 7 6 5 5 5 4 4 4 4 2 2 3 3 2 2 3 4 4 5 6 7 8 8 8 10 11 11
7 7 6 5 5 5 6 6 7 9 10 10 12 13 12 12 13 13 12 12 13 14 12 10 9 9 10 9 10 12 13 15 17 18 20 22 23 24 25 26 23 20 18 16 16 15 14 13 13 12 12 12 11 9 8 7 6 7 7 6 5 5 5 5 4 4 3 2 2 3 2 1 2 4 4 4 5 5 6 7 8 7 9 10 11
8 8 7 7 7 6 5 5 6 7 7 8 9 11 12 12 12 13 13 14 14 13 11 10 10 13 17 19 20 22 24 25 25 23 21 20 21 21 22 23 21 19 16 15 15 14 12 12 11 11 10 9 8 8 7 7 6 7 7 6 5 5 6 5 5 4 3 2 2 2 2 2 2 3 4 4 4 5 5 7 8 8 8 10 10
10 9 9 9 10 9 7 7 7 7 7 8 9 11 13 13 14 13 13 12 11 11 11 11 12 16 22 26 27 28 27 25 24 23 20 18 19 20 19 18 17 17 15 12 11 11 11 11 11 10 8 8 7 7 7 6 6 6 6 6 5 5 5 4 3 3 3 2 1 2 2 2 2 3 4 4 4 4 5 6 7 7 8 9 9
9 10 10 11 11 10 10 10 10 10 10 11 12 13 13 13 13 13 12 13 14 14 15 16 16 16 19 23 25 27 26 23 20 19 18 17 18 18 15 13 14 15 14 12 10 11 12 12 11 11 10 8 8 8 7 7 6 6 6 6 5 4 4 3 3 3 2 2 2 2 2 3 3 2 3 3 4 4 5 5 5 5 6 7 8
9 11 12 13 13 12 12 12 12 13 13 12 11 13 15 17 19 20 20 20 20 21 22 23 21 18 19 22 25 28 28 24 21 19 18 18 19 19 17 15 15 16 15 13 12 13 15 15 15 14 12 10 9 9 8 7 6 6 5 5 5 5 4 3 3 3 2 2 2 2 2 2 3 3 3 4 5 5 5 5 5 5 6 6 6
10 12 13 13 13 12 13 13 14 14 14 15 15 16 18 21 23 24 25 26 25 26 30 32 28 23 23 24 26 27 27 26 24 23 23 24 24 23 21 20 20 19 17 16 15 16 16 17 16 14 13 12 10 10 9 8 8 8 8 7 7 6 5 4 4 3 2 1 1 2 2 3 4 4 5 6 5 5 6 6 6 6 6 5 5
10 11 12 13 13 14 15 15 15 14 15 18 21 22 23 25 25 26 27 28 29 30 33 35 33 30 27 26 26 27 28 28 27 25 25 25 25 24 23 22 22 22 20 19 18 17 16 15 14 14 13 12 11 10 10 10 10 10 11 10 10 9 7 6 6 5 4 3 1 2 3 4 5 6 6 7 6 6 7 7 6 6 6 5 5
11 12 14 16 18 18 16 15 15 15 16 18 19 21 22 23 24 23 24 25 27 29 29 30 30 30 29 27 28 29 30 30 29 27 26 25 25 24 23 22 23 22 21 20 19 18 17 16 16 15 14 13 12 12 11 11 11 11 12 11 11 10 9 8 8 7 6 6 4 3 3 5 5 6 6 7 7 7 7 6 6 6 5 5 4
11 12 13 15 17 18 18 18 20 20 20 18 17 17 18 20 21 21 21 22 25 26 24 24 26 29 30 30 30 31 30 30 29 27 26 25 25 24 23 22 21 21 20 19 18 18 18 17 17 16 15 14 14 13 12 11 11 10 10 10 9 8 7 7 6 6 6 6 6 6 6 6 6 6 7 7 6 6 6 6 6 6 5 5 5
12 13 12 13 15 17 18 21 23 24 23 21 19 18 18 19 19 20 21 22 23 23 23 24 28 31 32 31 31 30 29 28 28 26 25 25 24 23 22 21 20 20 20 19 18 18 18 18 18 17 16 15 14 13 12 11 10 9 9 8 7 6 5 4 4 4 5 5 6 6 7 7 7 7 8 8 7 7 7 7 6 5 5 6 6
13 13 13 13 15 16 18 20 22 23 23 23 22 21 20 19 19 20 21 23 24 24 26 29 32 32 32 31 30 29 28 27 26 26 24 23 23 22 21 21 20 20 19 19 18 18 18 18 17 16 15 14 14 13 12 11 11 10 9 8 6 5 5 5 5 5 5 5 5 5 6 7 7 7 8 8 8 8 8 7 7 6 6 7 7
13 14 14 14 15 16 17 19 19 20 20 20 20 20 20 21 22 23 24 28 30 30 29 30 30 30 30 29 29 28 28 27 27 26 25 24 23 23 22 21 21 21 20 20 19 18 18 18 17 16 15 15 14 13 13 12 11 11 10 9 8 7 6 6 5 5 5 5 5 5 6 6 6 7 7 7 7 8 8 8 8 8 8 8 8
13 15 17 17 18 17 17 17 17 18 19 19 19 19 18 18 18 18 20 23 26 27 28 29 30 29 29 28 27 26 26 26 26 26 26 25 24 24 23 22 22 21 21 20 19 18 18 17 16 16 15 14 13 13 12 12 11 11 11 10 9 8 7 6 5 5 5 5 5 5 5 5 5 6 7 7 7 7 7 7 8 9 9 9 8
18 20 21 21 22 21 21 20 18 17 17 18 18 18 18 17 17 16 16 18 19 20 21 23 24 25 26 26 25 25 25 25 25 26 27 26 26 25 24 23 22 21 20 20 19 18 17 16 15 14 13 12 12 11 10 10 9 9 9 8 8 7 7 6 6 6 6 5 5 5 5 5 5 5 6 6 6 7 8 8 8 8 8 8 8
20 21 21 21 21 23 24 25 24 21 19 18 19 19 19 18 17 15 15 16 18 18 18 18 19 21 23 23 22 22 24 25 26 26 26 26 26 25 24 23 23 22 21 20 18 17 16 15 14 13 12 12 11 10 10 9 9 8 7 6 5 5 6 6 6 7 7 7 7 6 6 6 6 6 7 7 7 7 8 8 8 8 8 8 8
Wind_Direction
196 199 200 199 201 203 204 208 211 210 209 212 214 216 218 220 222 222 225 229 231 232 234 235 236 238 237 238 239 240 242 244 244 246 246 242 238 238 242 247 249 251 253 256 258 261 262 263 265 267 268 270 272 273 272 273 273 270 268 267 263 261 257 246 254 273 276 275 282 287 290 291 293 296 298 298 299 301 300 296 294 291 287 286 286
195 197 198 199 202 204 204 206 209 209 207 209 212 213 217 221 222 222 224 229 231 232 234 235 237 238 237 239 241 241 242 243 243 244 245 243 238 235 236 241 244 248 251 255 257 260 262 264 265 266 268 269 271 271 269 266 264 262 264 264 261 260 261 258 257 270 280 280 283 289 293 293 294 297 299 299 298 299 300 300 298 294 292 290 288
194 196 197 199 201 202 202 203 205 206 205 207 210 211 215 219 221 223 223 225 230 233 234 235 238 240 240 240 242 242 242 242 241 242 244 245 243 239 239 242 244 245 250 254 255 257 260 263 263 262 264 267 269 269 269 267 264 262 260 261 262 261 262 264 261 262 274 281 283 285 288 289 292 296 298 299 300 299 298 299 297 294 295 296 293
193 194 197 198 199 199 199 200 201 202 204 206 208 209 211 214 218 223 223 220 226 232 233 234 238 241 241 241 243 242 241 240 240 241 244 245 246 245 245 246 246 247 250 253 255 256 259 262 262 258 258 263 268 268 269 269 268 268 268 267 268 267 264 265 265 262 267 276 279 280 283 285 289 295 297 296 298 299 299 300 298 295 295 296 295
191 193 196 198 197 197 198 199 200 202 204 206 207 208 208 208 214 220 220 217 221 228 231 233 235 238 240 240 242 242 241 240 239 240 242 244 247 246 246 247 248 249 252 252 253 256 260 261 262 260 257 260 264 265 266 270 271 272 272 273 273 273 271 270 271 267 262 268 276 280 284 286 288 294 296 296 296 297 299 300 301 300 300 299 295
190 190 193 195 195 196 197 197 200 202 203 205 205 206 205 205 209 214 216 215 216 221 227 230 233 236 238 239 240 242 242 241 241 241 241 243 246 246 244 246 248 250 253 253 251 254 260 263 263 261 255 258 264 264 265 269 271 272 274 276 277 276 275 274 273 269 263 265 273 277 280 283 284 289 294 297 295 294 296 298 298 300 303 302 298
186 187 191 193 194 195 195 197 200 201 202 203 203 203 204 205 207 210 213 214 214 215 220 227 232 234 236 238 239 241 242 241 242 243 242 242 244 246 243 242 244 249 253 253 251 254 260 263 264 262 260 264 267 266 266 266 266 270 275 276 275 272 271 272 269 267 267 267 271 275 276 276 277 280 288 295 295 293 294 293 293 297 298 296 293
183 186 189 191 192 194 196 200 202 201 201 203 203 202 203 204 206 208 210 212 214 215 217 221 226 230 233 236 237 238 239 241 241 242 243 242 242 244 244 242 241 245 250 253 252 253 257 260 262 263 264 268 270 269 268 267 264 267 272 271 268 266 266 270 272 273 274 274 277 281 280 281 283 281 281 286 288 290 292 291 290 292 292 290 289
183 185 187 190 194 197 199 201 202 201 200 204 206 203 202 204 207 208 211 213 214 216 218 217 219 225 230 233 234 234 236 239 240 239 240 240 240 241 242 242 242 242 246 250 250 251 255 256 257 259 263 270 275 276 276 273 268 267 268 268 268 270 272 274 276 278 279 279 283 287 287 287 291 289 280 269 273 285 289 287 285 287 289 290 290
183 186 188 192 197 201 202 202 201 202 202 206 208 206 204 206 207 208 212 215 215 215 216 214 215 221 226 228 230 231 233 238 240 240 240 240 239 238 238 241 243 242 243 246 248 250 253 255 256 260 266 273 279 281 281 280 278 275 274 271 268 270 274 275 276 279 281 281 285 290 291 291 297 297 286 274 279 287 283 275 280 287 291 291 291
184 187 189 194 199 202 202 201 202 203 204 206 207 208 207 206 207 209 211 214 214 214 215 214 216 219 221 223 226 229 234 239 241 243 243 241 239 236 235 239 241 241 242 244 247 249 251 254 256 260 266 273 278 282 283 283 282 282 282 280 276 272 270 270 274 278 280 281 283 287 289 290 295 297 290 287 293 293 282 277 276 283 289 289 291
186 188 189 193 198 200 199 199 201 203 204 205 207 209 208 205 206 208 210 212 211 212 214 216 218 220 219 221 224 228 234 240 242 244 244 244 241 237 235 236 237 238 238 240 244 247 249 252 254 256 262 269 272 276 280 284 286 286 286 285 283 279 274 270 269 271 274 279 283 285 285 286 290 292 290 291 293 291 291 288 280 278 285 281 275
185 187 189 192 195 196 196 197 199 200 203 205 207 208 206 205 206 208 210 211 211 213 216 217 218 219 219 220 224 227 233 239 243 244 244 244 243 240 237 236 237 239 238 237 240 243 246 250 252 255 261 266 270 272 275 280 284 286 288 287 285 284 282 278 274 271 270 272 275 278 278 278 280 283 287 289 286 280 287 287 283 282 281 273 270
184 186 188 191 192 194 196 196 197 200 203 205 205 205 205 206 208 209 210 209 210 213 216 216 217 218 219 222 225 228 232 237 242 244 244 243 243 241 239 237 238 242 242 240 240 241 244 247 250 256 260 262 267 271 273 275 277 279 282 283 284 286 287 285 283 279 275 271 269 272 277 277 278 281 287 291 287 273 276 282 285 285 279 274 276
183 185 187 190 192 194 196 196 197 200 202 203 202 202 204 206 207 207 207 208 210 214 216 215 216 219 221 223 226 229 233 237 241 243 243 242 241 240 240 237 238 242 244 243 243 243 246 247 248 255 258 258 262 267 269 270 271 271 273 275 278 282 283 283 283 282 280 277 275 279 284 285 285 287 290 291 286 273 275 282 286 285 281 279 279
182 185 187 190 192 193 194 195 197 198 198 199 200 201 202 205 206 206 206 208 211 213 215 216 217 220 223 223 225 230 234 236 240 242 242 241 238 237 238 237 237 240 242 243 244 246 248 248 249 254 257 259 264 268 270 270 266 265 270 273 276 280 281 282 282 280 280 281 284 289 291 291 291 294 295 296 294 289 285 284 282 279 277 277 276
184 186 189 191 192 193 193 194 196 197 196 197 199 200 202 205 206 205 205 208 210 211 213 216 218 221 223 222 224 229 233 235 238 240 240 238 234 233 235 235 235 238 242 243 245 247 248 249 250 254 257 261 266 270 273 271 266 263 265 270 275 280 283 285 286 286 287 290 292 293 295 297 299 301 302 302 302 299 293 284 278 276 273 270 272
186 188 190 192 192 192 193 195 196 196 196 198 200 201 202 204 206 206 207 209 212 213 214 216 219 222 223 222 225 229 232 235 238 240 239 236 233 232 232 232 233 237 242 245 246 247 249 251 252 253 257 262 267 271 272 269 265 263 263 267 273 277 282 287 288 289 289 289 292 295 299 302 303 303 305 306 306 302 288 278 278 279 276 271 274
187 189 190 191 191 192 194 197 197 196 197 200 201 201 203 204 205 206 207 210 213 214 215 216 219 221 222 224 228 232 232 235 239 240 238 235 233 231 230 229 231 235 240 244 246 247 251 254 256 257 258 262 266 269 270 267 264 263 263 266 270 274 279 283 284 284 284 287 294 300 302 304 303 304 308 311 313 308 287 276 279 284 282 281 283
188 189 189 190 192 194 196 198 199 198 198 201 201 202 204 204 203 204 206 209 212 214 215 216 219 222 223 225 229 232 232 233 237 240 239 235 233 231 228 226 229 232 236 240 242 245 250 254 257 259 261 264 266 268 269 267 265 263 262 263 267 270 274 275 276 280 287 294 302 304 304 309 314 314 315 317 319 316 303 291 288 286 285 286 285
189 189 190 191 193 196 198 199 200 200 201 202 202 203 204 203 202 202 205 208 211 213 215 217 220 224 226 227 229 231 231 231 234 237 239 237 234 232 228 227 229 231 233 237 239 242 247 250 254 260 264 266 268 270 270 269 267 265 263 262 264 266 268 269 273 281 290 297 304 309 313 320 326 325 325 329 330 327 320 311 303 296 290 290 290
191 192 191 192 193 195 197 199 200 201 202 201 200 200 202 202 201 202 204 206 209 212 214 217 221 225 228 230 232 232 233 233 233 235 238 238 237 233 231 231 234 232 231 235 238 239 242 247 254 262 265 267 269 271 271 271 268 266 265 265 266 266 266 269 277 285 289 292 300 310 319 325 327 327 331 334 331 329 326 320 314 308 298 290 290
190 190 190 190 191 193 194 196 199 200 200 200 201 201 201 199 199 200 201 202 206 212 216 220 223 227 231 235 237 237 235 235 235 236 237 239 239 237 235 237 238 234 232 234 238 240 244 249 255 261 264 265 268 269 270 269 265 261 262 262 263 264 268 275 280 281 279 283 294 306 315 321 324 327 332 332 329 331 333 329 323 318 309 301 297
188 188 189 189 190 192 194 197 199 200 201 202 203 203 200 199 200 202 202 204 210 216 220 223 225 229 234 237 238 239 237 234 236 238 239 239 240 239 239 240 240 237 235 237 240 242 245 248 253 259 263 265 265 263 261 257 254 253 254 256 260 267 270 269 260 251 257 278 293 301 309 320 326 328 328 329 332 336 335 330 326 325 318 311 307
186 186 187 189 191 193 195 198 199 201 202 202 203 202 200 199 201 204 205 207 212 218 220 221 223 227 232 233 234 237 235 228 230 237 240 239 240 241 241 241 241 239 237 239 241 242 243 245 251 257 261 259 256 251 246 243 244 248 252 256 260 259 241 211 192 189 231 277 292 304 315 324 328 328 329 333 335 333 328 324 325 328 325 317 312
184 184 186 189 192 194 196 197 199 200 200 200 202 202 201 199 200 202 203 205 210 215 217 218 221 225 229 232 234 235 230 222 221 230 236 237 237 239 240 241 241 240 237 236 237 240 243 246 250 253 252 247 240 233 232 236 243 248 249 241 219 191 174 165 153 143 328 311 311 317 325 330 331 333 336 335 330 323 321 322 323 326 327 324 320
185 186 188 190 192 194 196 197 198 198 198 199 201 202 202 200 199 200 201 203 208 214 217 218 221 224 228 231 232 230 226 220 215 219 227 232 234 235 236 236 236 236 234 233 234 237 241 243 243 240 233 226 223 224 228 233 235 227 207 184 170 160 153 143 124 99 54 2 339 337 340 337 333 333 333 328 321 322 328 329 326 328 331 330 326
189 190 191 191 192 194 196 197 197 196 197 199 201 202 202 203 203 203 203 202 204 209 216 218 218 220 223 224 224 224 224 220 216 217 222 226 227 229 230 230 230 231 231 229 228 229 230 227 221 217 213 210 211 215 216 210 201 189 175 163 154 143 132 119 100 76 52 26 6 356 346 335 328 329 327 324 326 332 334 333 332 333 335 334 333
193 193 194 194 193 193 195 197 199 199 199 198 200 202 203 203 206 208 209 209 208 208 210 211 212 215 218 218 217 214 213 221 230 234 234 231 228 227 228 229 229 230 229 224 219 216 212 205 202 201 199 199 197 192 187 181 175 172 165 151 140 136 133 122 102 73 50 30 10 352 336 328 332 333 329 328 333 335 333 333 337 338 339 340 340
193 196 198 197 196 194 194 197 199 200 198 195 197 201 204 205 207 208 211 215 217 217 216 216 216 217 218 219 221 221 225 237 247 248 243 239 236 234 234 233 231 229 227 218 208 202 194 191 194 195 191 189 184 177 173 169 165 162 155 145 141 145 137 120 103 80 54 34 15 348 337 339 340 336 331 331 332 332 331 336 341 344 346 348 348
187 193 196 199 201 199 196 196 197 199 199 197 196 197 200 205 209 212 213 216 219 221 223 225 227 227 227 228 231 235 239 246 251 252 249 244 238 233 232 231 228 227 222 209 196 190 188 187 187 186 184 181 177 172 167 163 161 158 152 148 144 134 123 111 98 84 61 38 18 357 354 355 346 333 331 335 334 332 335 342 350 352 351 353 355
179 182 187 196 201 201 199 199 200 200 198 195 194 193 192 193 202 211 216 219 219 221 223 226 229 232 233 234 238 243 247 248 248 248 246 242 235 228 225 224 224 223 216 201 189 183 185 185 179 176 174 171 170 170 166 161 160 159 155 152 139 124 124 123 107 94 73 44 30 17 10 3 345 327 326 332 335 340 344 350 359 360 354 354 358
168 170 174 183 191 193 192 193 196 197 194 190 190 190 189 187 188 196 206 215 218 219 221 224 227 230 231 233 237 243 247 246 243 241 237 232 228 222 218 216 215 207 196 188 181 175 174 173 167 164 164 163 164 165 162 159 161 157 151 145 134 130 136 128 107 93 71 50 42 29 17 3 342 332 335 334 335 347 355 359 4 3 357 356 359
152 156 158 163 172 180 185 186 188 189 190 188 186 186 189 191 187 182 183 192 204 211 217 223 226 228 229 229 230 233 239 240 238 235 230 221 215 210 201 190 182 180 180 179 171 161 155 153 153 157 161 160 158 157 158 160 160 154 147 142 136 137 139 125 110 101 75 53 43 29 23 12 353 346 345 342 338 345 358 6 8 4 0 0 3
136 138 148 153 158 168 181 185 184 184 187 187 185 186 188 187 181 178 179 182 185 188 198 212 221 224 225 224 223 224 228 229 226 223 215 202 194 187 174 160 155 160 167 168 163 158 156 158 161 164 163 159 154 153 156 158 155 148 143 140 136 138 136 126 122 114 88 67 57 42 31 17 5 351 339 341 349 354 359 8 10 6 5 6 6
113 117 133 149 155 158 166 174 179 187 192 192 192 192 187 178 176 180 182 180 175 173 177 187 200 207 211 214 213 214 216 214 207 199 189 180 176 173 163 152 145 145 147 151 154 157 157 159 160 158 154 152 150 149 148 148 146 143 139 136 136 139 134 127 128 117 94 76 63 53 44 19 5 357 339 339 355 359 358 0 360 359 2 3 2
94 104 117 129 136 137 144 155 172 185 186 185 189 190 180 169 171 174 169 163 164 167 166 163 157 152 150 154 164 167 163 158 155 151 150 152 158 161 157 148 141 137 136 142 149 151 147 144 144 145 147 148 147 144 141 140 139 139 136 132 132 134 127 118 116 112 104 92 65 47 40 15 1 356 345 342 354 359 357 354 348 343 350 357 360
90 99 111 121 123 120 125 134 146 161 166 168 177 178 168 160 161 160 156 155 157 156 150 141 133 127 121 120 125 128 126 125 125 124 127 134 139 140 140 139 137 134 131 136 144 144 136 130 130 131 135 135 133 134 137 137 137 138 134 128 125 121 115 108 100 97 94 89 76 55 39 14 351 347 341 338 344 352 352 349 344 341 348 0 7
85 92 105 117 117 115 118 123 129 140 150 154 159 161 160 158 156 152 147 143 137 128 121 116 113 116 119 121 122 121 118 116 117 118 119 122 123 124 129 132 132 127 124 126 129 126 118 116 116 115 116 120 123 127 128 128 132 133 129 127 126 113 101 97 98 94 85 74 72 58 36 9 346 340 338 335 341 347 346 342 341 344 352 1 4
79 85 92 99 102 103 106 114 123 131 136 139 143 143 139 132 124 117 114 115 113 109 106 104 103 110 119 123 124 121 116 111 111 113 112 111 113 117 120 119 116 117 118 119 118 115 112 112 112 111 112 113 115 119 122 124 129 129 124 124 126 116 103 101 101 89 79 67 56 46 30 17 9 350 329 328 338 337 332 332 334 341 354 360 357
82 86 87 90 95 99 100 103 111 117 118 116 118 120 116 112 108 105 106 108 107 105 103 100 99 105 115 120 122 122 118 115 114 110 106 104 107 111 113 111 109 110 113 113 115 118 119 119 119 119 119 119 119 121 123 125 126 124 119 118 123 125 120 110 92 76 70 55 35 30 21 12 9 356 335 334 336 323 310 313 321 329 343 354 353
83 89 91 91 94 97 98 99 104 108 107 103 101 105 109 111 111 110 110 111 110 108 106 105 104 108 114 120 123 122 118 118 119 118 115 115 115 114 114 114 112 112 112 112 113 116 117 118 120 123 127 130 130 130 129 129 127 124 118 114 116 119 114 101 86 77 72 49 7 359 347 335 334 330 325 325 323 309 298 301 307 315 327 337 337
80 84 90 95 96 97 97 97 97 98 101 104 106 107 108 109 109 109 110 111 111 110 110 112 115 118 120 124 128 125 118 114 113 111 110 113 115 115 116 117 117 117 116 115 116 117 118 119 123 127 131 135 136 135 132 129 125 119 114 109 107 106 101 90 78 71 67 60 30 339 323 315 311 308 307 308 307 303 299 299 301 308 319 325 322
86 86 89 95 99 99 97 97 98 98 101 104 107 109 110 110 110 111 111 111 111 111 112 114 116 116 114 117 120 118 113 111 111 109 109 111 113 113 115 116 116 118 119 119 120 123 124 124 126 127 127 127 127 125 123 120 117 112 108 105 101 97 91 80 67 56 49 44 37 17 347 330 319 313 310 308 305 302 300 296 296 303 313 319 319
95 98 97 98 99 99 97 99 104 107 107 106 104 104 108 110 111 112 112 112 112 112 110 109 109 109 109 111 112 111 110 111 112 112 112 112 111 111 111 112 113 115 117 120 123 126 125 124 123 121 119 118 117 115 112 109 107 103 101 98 94 89 82 72 58 41 28 22 19 10 354 339 327 323 324 321 313 307 306 303 296 294 298 304 308
97 101 103 102 100 99 100 102 105 107 107 105 103 102 103 106 109 110 110 110 111 110 109 109 111 111 110 111 112 111 112 113 114 115 116 115 114 113 113 113 114 115 117 120 123 125 125 124 122 119 116 113 110 107 102 97 93 89 86 85 82 76 68 54 35 22 12 4 360 356 346 333 321 321 328 327 317 310 312 310 303 298 299 301 300
102 100 101 101 100 100 102 104 105 105 104 103 103 101 100 101 104 106 108 110 110 109 108 111 113 113 112 113 114 114 114 114 114 114 114 114 114 115 116 116 116 117 117 119 120 121 121 120 119 116 113 109 104 100 95 88 83 78 72 65 56 48 39 24 10 3 359 349 345 345 341 330 321 322 329 329 323 319 318 315 312 312 310 307 304
106 104 102 99 98 99 100 101 103 103 102 102 102 101 100 101 103 103 105 108 109 108 107 109 110 111 111 112 113 114 115 115 115 115 115 113 113 114 114 115 115 115 114 114 114 113 113 112 110 108 105 101 95 90 85 79 75 70 64 57 48 38 29 20 12 7 358 347 344 346 342 333 325 325 331 334 333 330 328 324 324 324 319 312 309
100 105 105 101 98 99 99 100 100 101 102 102 102 101 101 101 100 100 101 103 104 106 108 109 110 110 112 112 112 112 112 111 111 112 113 113 112 113 114 114 115 114 112 110 108 105 104 103 101 98 96 92 87 82 76 72 68 64 60 55 49 41 35 30 24 16 4 352 352 355 351 344 339 340 343 344 343 342 341 340 340 338 330 321 316
95 98 98 97 97 99 100 98 98 98 99 101 101 100 99 97 96 98 99 98 97 99 102 105 107 109 110 111 111 110 109 108 108 109 110 111 111 112 113 112 112 111 109 107 105 102 100 98 96 94 93 90 86 82 76 70 66 61 55 49 43 37 33 30 28 24 18 12 12 13 7 1 1 2 2 358 351 348 350 350 348 345 339 332 328
95 95 93 91 92 95 96 95 92 91 92 94 93 92 91 90 91 94 97 97 96 96 97 99 101 103 105 106 106 106 105 105 106 107 108 109 110 111 110 109 108 107 106 105 103 101 99 97 94 92 89 86 83 80 74 66 59 51 42 34 24 16 13 10 9 10 9 9 11 15 13 14 18 19 17 13 6 359 356 353 348 344 341 339 336
Height
779 782 785 789 791 794 798 800 804 807 809 812 814 817 819 821 824 826 828 830 832 834 836 838 840 841 843 844 845 847 847 849 850 852 853 854 856 857 857 858 859 859 860 861 862 863 863 864 865 865 866 866 867 867 867 867 867 867 868 868 868 868 868 868 867 861 859 860 860 859 859 859 858 858 858 858 858 858 857 858 857 857 856 855 854
774 777 781 784 787 790 794 797 801 804 807 809 811 814 816 818 821 823 825 827 829 832 833 835 837 839 840 842 843 844 845 846 848 849 851 852 853 855 855 856 857 857 858 859 859 860 861 861 862 863 864 864 865 865 865 865 866 866 866 866 866 866 865 865 865 861 857 856 857 857 856 856 855 855 856 856 856 856 855 854 854 853 853 852 851
769 773 777 780 783 787 790 793 797 800 803 806 808 810 813 815 818 820 822 825 827 829 831 832 834 836 837 839 840 841 842 844 845 846 848 849 851 852 853 853 854 855 855 856 857 858 858 859 860 861 861 862 862 863 863 863 863 863 863 863 863 863 863 863 863 861 857 854 855 855 854 854 853 853 853 853 853 853 852 851 850 850 849 848 847
765 769 773 777 780 783 786 789 793 796 799 802 804 807 810 812 814 816 819 822 824 825 828 830 832 833 834 836 836 838 839 841 842 843 845 846 848 849 850 851 852 852 853 854 855 856 856 856 857 859 859 860 860 860 860 860 860 861 861 861 860 860 860 860 859 859 857 853 852 853 853 852 851 851 851 850 850 849 848 848 847 847 846 845 844
760 764 769 774 777 780 783 786 789 792 795 798 800 803 806 809 811 813 816 819 821 823 825 827 829 830 831 832 833 835 837 838 840 841 842 844 845 846 848 848 849 850 851 852 852 853 853 854 855 856 857 857 857 857 857 857 858 858 858 858 858 857 857 857 856 856 855 852 850 849 850 849 848 848 848 848 847 846 845 844 844 843 842 841 839
756 760 765 770 773 776 779 782 785 788 791 794 797 800 803 805 807 810 813 815 818 819 821 823 825 826 827 829 830 832 834 835 837 838 840 841 842 844 845 846 847 847 848 849 850 851 851 851 852 853 854 854 854 854 854 855 855 855 855 855 855 855 854 854 853 853 852 850 848 846 846 846 846 845 846 845 845 844 842 841 840 840 837 835 833
751 755 760 765 769 771 774 777 780 783 786 790 793 796 799 801 804 806 809 812 814 816 818 820 821 823 824 826 827 829 831 832 834 835 837 838 840 841 842 843 844 845 845 846 847 848 848 849 849 850 851 850 851 851 852 852 852 852 852 852 852 852 852 851 850 850 849 847 846 844 843 843 843 842 842 842 842 841 840 838 836 835 833 830 828
746 751 756 760 764 766 769 773 776 779 782 786 789 792 795 798 800 803 805 808 810 812 814 816 817 819 821 822 824 826 827 829 830 832 833 835 837 838 839 841 841 842 843 843 844 845 845 846 846 847 847 847 848 848 849 849 850 850 850 850 850 850 849 849 848 847 846 845 844 843 841 841 841 840 840 839 839 838 837 836 833 829 826 825 824
742 747 751 755 758 761 765 769 772 776 779 782 785 788 791 794 796 799 801 804 806 808 810 813 814 816 817 819 821 822 824 825 826 828 830 832 834 835 837 838 839 839 840 840 841 842 842 843 843 844 844 844 844 845 845 846 847 847 847 848 848 848 847 846 845 844 843 842 841 840 839 839 839 839 838 837 836 835 834 833 829 823 822 822 819
737 743 747 750 754 758 762 766 769 772 775 778 781 785 788 791 793 795 798 800 802 805 807 809 811 812 814 815 817 818 819 820 821 824 826 828 831 833 834 835 835 836 837 838 839 839 839 840 840 840 841 841 841 841 841 842 842 843 844 845 846 845 844 843 843 841 840 839 838 837 836 835 836 836 836 835 834 833 832 829 825 821 821 819 812
734 739 742 746 750 754 759 762 766 769 772 775 778 781 785 787 790 792 794 797 799 801 803 805 807 809 810 812 813 814 815 815 817 820 822 825 827 830 831 832 833 833 834 835 835 836 836 837 837 837 837 837 837 837 837 838 838 839 839 840 841 841 841 840 840 839 837 836 835 835 833 832 833 833 833 833 833 832 829 825 823 820 819 817 810
731 735 739 742 747 751 755 759 762 766 769 772 775 778 781 784 786 788 791 793 795 797 799 801 803 805 807 808 809 810 810 811 813 816 818 821 824 826 828 829 830 830 831 831 832 832 833 834 834 835 834 834 834 834 834 834 834 835 836 836 836 836 836 836 836 836 834 832 831 831 831 830 829 829 830 831 831 831 827 821 820 820 818 816 811
728 732 736 740 743 747 752 755 758 762 765 768 771 774 777 780 782 784 787 789 792 794 795 797 799 801 803 804 805 805 806 807 809 812 814 817 820 823 825 826 827 827 828 828 829 829 830 831 831 831 831 831 831 831 831 831 831 831 832 832 832 831 830 831 831 831 831 830 828 827 827 827 825 825 828 829 828 829 825 816 815 819 816 812 807
725 729 733 736 740 744 748 751 754 758 761 764 768 770 773 775 778 781 784 786 788 789 791 794 795 797 799 800 801 802 803 804 805 808 810 813 816 818 821 822 824 825 825 825 825 826 826 827 827 827 827 827 828 828 828 829 829 829 829 829 828 827 827 826 826 826 825 825 824 822 821 822 821 821 824 826 825 826 823 814 811 814 812 805 801
722 726 730 733 737 741 744 747 751 754 757 761 763 766 769 771 774 777 780 782 783 785 788 790 792 793 795 796 797 798 799 800 802 804 806 809 812 814 816 819 820 821 821 822 822 822 823 823 824 823 824 824 824 825 825 826 827 827 827 827 826 826 825 823 822 821 820 820 819 817 815 816 817 817 819 820 820 821 819 814 809 809 805 800 797
719 723 727 730 733 736 740 744 747 750 754 757 759 762 765 767 770 773 776 778 780 782 784 786 788 789 790 792 794 794 794 796 798 799 802 805 808 810 812 814 816 817 817 818 818 818 819 820 820 820 820 820 820 821 822 823 824 825 825 824 824 823 822 820 819 817 817 817 816 814 813 813 814 813 813 814 814 814 813 810 806 804 801 796 792
716 719 723 726 729 732 736 739 743 746 750 752 755 758 761 764 766 769 772 774 776 778 780 782 783 785 786 788 789 789 790 792 794 796 798 801 804 806 808 810 812 812 813 813 814 814 815 815 816 816 816 816 816 817 819 820 821 821 822 822 821 820 819 817 815 813 813 814 813 811 811 810 810 809 809 809 809 809 808 806 802 800 797 793 788
712 715 719 722 726 729 732 735 739 742 745 748 751 754 757 760 762 765 768 770 772 774 776 778 779 781 782 784 785 785 787 789 790 792 795 797 800 802 804 806 807 808 808 809 810 810 810 811 812 813 812 812 813 814 815 816 817 818 818 819 819 818 817 815 812 809 810 811 810 809 808 808 807 805 805 805 805 805 803 800 798 796 794 790 785
707 710 715 719 723 726 729 732 735 738 741 744 747 750 753 756 758 761 764 767 769 771 773 774 776 777 778 780 780 782 784 785 787 788 791 793 796 798 800 802 803 804 804 805 805 806 806 807 808 808 808 808 809 811 812 813 814 814 815 816 816 816 815 813 810 806 806 808 809 807 806 805 804 802 800 800 799 799 798 796 795 793 790 786 783
702 707 712 716 719 722 725 728 731 735 737 740 743 746 749 752 755 758 761 763 766 768 769 771 772 773 774 776 777 778 780 781 783 784 786 789 791 794 796 797 798 799 800 801 802 802 802 803 803 804 804 805 806 807 809 810 810 811 813 813 813 813 812 811 808 805 803 804 806 805 803 802 800 799 798 797 796 796 795 794 792 790 787 783 779
701 706 709 713 716 719 722 725 728 732 734 737 740 743 745 749 752 754 757 760 762 764 765 767 768 770 771 772 773 774 775 777 778 779 782 784 787 789 791 792 793 795 796 797 798 798 799 799 799 800 800 802 803 804 805 806 807 808 809 809 810 810 809 808 807 806 804 802 801 801 800 798 798 797 796 795 795 794 793 791 790 787 785 781 776
700 704 707 711 714 717 720 723 726 729 732 734 737 740 742 746 749 751 754 756 758 760 762 764 765 766 767 768 770 770 771 773 774 776 777 780 782 784 786 787 789 791 793 793 794 794 795 795 796 796 797 799 800 801 802 803 804 804 805 805 806 807 807 806 806 806 805 803 801 800 798 798 797 796 795 794 793 792 791 788 786 784 782 779 776
698 701 705 708 711 714 717 720 723 727 729 731 734 737 739 742 745 747 750 752 754 757 759 761 762 763 764 765 766 767 768 768 770 772 773 775 777 779 781 782 784 787 789 789 790 791 792 792 793 793 795 796 797 798 799 800 801 801 802 803 803 804 804 805 805 805 804 803 802 801 800 799 798 796 795 794 792 790 788 785 783 780 778 775 772
695 699 702 705 709 712 714 717 720 723 726 728 731 734 736 739 742 744 746 749 751 753 755 757 759 759 760 762 762 764 765 765 765 767 769 771 773 774 776 778 780 783 784 785 787 788 789 789 790 791 792 794 795 796 797 798 798 799 800 800 801 802 802 803 803 803 803 803 802 801 800 800 798 797 795 793 791 788 786 783 780 777 774 771 767
693 696 700 703 706 709 712 715 717 720 722 724 727 730 733 736 738 740 743 745 748 750 751 753 754 755 756 758 758 760 761 761 761 762 764 766 768 770 772 774 776 778 781 782 784 785 786 787 788 789 790 792 792 794 795 795 796 797 798 798 799 800 801 801 802 802 802 802 801 801 800 799 798 796 794 792 789 787 785 782 778 774 771 768 764
691 694 697 700 703 706 709 711 714 716 719 721 723 726 729 731 734 736 738 740 743 745 746 748 750 751 752 753 754 755 756 756 757 758 760 762 764 766 768 770 772 775 777 779 781 782 783 784 786 787 788 789 791 792 793 794 795 795 796 797 798 798 799 800 800 801 801 801 800 800 799 798 797 795 793 790 788 786 784 780 776 772 770 766 762
689 692 694 697 700 703 705 708 710 713 715 717 720 722 725 727 729 731 733 736 738 741 742 744 745 747 748 749 750 751 752 752 753 755 756 758 760 762 764 766 768 771 773 775 777 779 781 782 784 785 787 788 789 790 791 792 793 794 795 795 796 797 798 798 799 799 799 799 799 799 798 797 795 794 791 789 788 785 782 779 776 772 769 766 761
686 689 692 694 697 699 702 704 707 709 711 713 716 718 720 723 724 726 728 730 732 735 737 738 740 741 742 743 745 746 747 748 749 750 751 753 755 757 759 761 764 766 769 772 774 776 778 780 782 784 785 787 788 789 790 791 792 793 794 794 794 795 796 797 797 798 798 798 798 797 796 796 794 792 791 789 786 784 781 779 776 772 769 765 761
683 686 689 691 694 696 698 701 703 705 707 709 711 713 715 717 719 721 723 724 726 729 731 732 734 736 737 738 740 741 742 743 743 745 746 749 751 753 755 758 760 763 765 769 771 773 776 779 781 782 783 785 786 787 788 790 791 792 793 793 793 795 796 796 796 796 796 797 796 796 795 794 793 791 790 788 785 783 781 778 775 771 768 765 762
682 684 686 688 690 693 695 697 699 701 703 705 707 709 712 714 716 718 720 721 723 725 727 729 730 732 733 734 735 737 738 739 740 742 744 746 749 751 753 756 758 760 763 766 769 772 774 776 778 779 781 782 784 785 787 788 790 791 791 792 793 794 794 794 795 795 795 795 795 795 794 793 792 791 789 788 785 782 780 777 774 771 768 766 763
681 682 684 686 687 689 692 694 696 698 699 701 703 706 709 712 713 715 717 719 721 723 725 727 728 730 731 732 733 734 736 737 738 740 742 744 747 749 752 754 756 758 761 763 767 770 772 773 775 777 778 780 781 783 785 786 788 789 790 791 792 792 792 793 793 793 794 794 794 794 792 791 791 791 789 788 785 783 780 777 773 771 769 767 764
679 680 682 683 685 687 689 691 693 695 697 699 701 704 707 709 712 714 716 717 719 721 723 725 726 727 729 730 731 732 734 735 736 738 740 743 745 747 750 752 754 757 759 761 764 767 769 771 772 774 776 778 779 781 782 784 786 787 788 789 790 790 790 791 791 792 792 793 792 792 791 790 791 790 789 787 785 783 780 776 773 772 770 768 765
679 680 681 682 684 686 687 689 691 692 694 697 699 702 704 706 709 711 714 716 718 719 720 722 723 724 726 728 729 730 732 733 734 736 738 741 743 745 747 750 752 755 757 760 762 764 766 768 770 772 774 776 777 779 781 783 784 785 786 787 787 788 788 789 789 790 791 791 791 790 790 790 790 789 788 786 784 782 779 776 774 772 770 768 765
680 680 680 681 683 685 686 688 689 691 693 695 697 699 702 704 706 708 712 714 716 718 719 719 720 722 723 725 726 728 729 731 733 734 736 739 741 743 746 748 751 754 756 758 759 761 764 767 769 771 773 775 777 778 780 781 782 783 784 785 785 786 787 787 788 788 789 789 789 789 789 790 789 788 787 785 783 781 779 776 774 773 771 769 765
679 679 679 681 683 685 687 688 689 691 693 695 696 698 700 702 704 707 710 712 715 716 717 718 719 720 721 722 724 726 727 729 731 733 735 737 740 742 745 748 751 754 755 757 759 761 763 766 768 771 773 775 777 778 779 781 781 782 783 784 785 785 786 786 786 787 787 788 789 788 788 789 788 787 786 785 783 781 779 777 775 774 772 769 766
678 679 680 681 683 685 686 688 690 692 693 695 697 699 700 701 704 706 709 711 713 715 716 717 718 719 720 721 723 725 727 728 730 733 735 737 739 741 744 747 750 753 755 757 760 762 764 766 769 771 773 775 777 778 780 781 782 782 783 784 785 786 786 785 785 785 786 787 788 787 788 788 787 787 786 785 783 781 779 778 776 775 773 770 767
679 680 681 682 684 685 686 688 690 692 693 695 697 699 700 702 704 706 708 710 712 714 716 717 719 719 721 722 724 726 728 731 733 735 738 740 741 742 744 747 749 753 755 758 760 764 766 768 769 771 773 774 776 777 779 781 782 782 783 783 785 785 785 784 784 784 785 786 787 787 787 787 786 786 785 784 783 781 780 778 777 776 774 771 768
680 681 682 683 685 686 687 689 690 692 694 695 697 698 700 701 703 705 707 709 712 714 717 719 720 721 723 725 727 729 732 734 737 740 743 745 745 746 748 749 751 753 756 759 762 765 767 768 770 772 773 775 776 778 779 780 782 782 783 783 784 784 784 783 783 784 785 786 786 786 786 786 785 785 785 784 783 781 780 779 778 776 774 771 769
683 683 684 684 685 687 689 690 691 693 694 696 697 698 700 701 704 706 708 711 713 716 719 721 723 725 726 728 731 733 735 738 740 743 746 748 748 749 752 753 753 755 758 762 764 765 767 768 770 772 775 776 777 779 780 781 782 782 782 783 784 784 783 783 784 784 785 785 785 785 785 785 785 784 784 783 782 781 780 780 779 777 774 771 770
685 685 686 686 687 689 690 691 693 694 696 697 698 699 701 703 706 708 710 713 715 718 721 724 727 729 731 732 733 734 737 741 744 745 747 749 750 751 755 757 756 757 760 763 764 765 766 768 770 773 776 778 779 779 780 782 783 783 782 783 783 783 783 784 784 784 784 784 784 784 784 784 784 783 783 783 782 781 780 780 779 777 774 772 771
688 687 688 688 689 690 691 693 694 696 697 699 700 702 703 706 708 709 711 714 716 719 722 725 730 733 734 735 735 736 738 742 745 747 749 751 752 754 756 758 758 759 761 764 765 766 767 768 770 773 776 779 780 781 782 783 783 783 782 782 782 783 784 784 783 784 784 784 784 784 783 783 783 783 782 782 781 780 780 779 778 776 774 772 771
691 690 690 691 692 692 694 695 697 698 699 701 703 705 706 708 709 710 712 715 717 720 722 725 730 734 736 736 737 739 740 743 746 747 749 751 753 755 758 759 759 760 762 764 765 766 768 769 771 773 776 779 781 782 783 783 783 782 782 781 782 782 783 783 783 783 783 783 783 783 783 783 782 782 782 781 780 779 778 778 776 775 773 772 771
693 693 693 693 694 695 696 698 699 701 703 704 706 707 709 710 712 714 715 717 720 722 723 725 729 734 737 738 739 740 742 745 747 750 752 753 754 757 759 760 760 761 762 764 766 767 768 770 773 776 778 780 782 782 783 782 782 781 781 781 781 781 782 782 782 782 782 782 782 782 782 782 782 781 781 780 779 778 777 776 775 773 772 770 770
696 695 696 696 696 696 698 699 701 703 705 707 709 710 711 713 715 717 718 720 723 725 727 729 730 733 736 739 741 742 744 746 749 752 755 757 758 760 762 762 762 762 763 765 767 768 770 773 775 777 779 780 781 782 782 781 781 780 780 780 780 781 781 781 781 781 781 781 781 781 781 781 781 780 780 779 778 777 775 774 773 772 771 769 768
698 699 699 699 698 699 700 701 703 705 707 709 711 713 714 716 717 719 721 722 724 727 730 732 733 735 737 740 743 745 747 749 752 755 758 759 761 762 763 764 763 763 764 766 768 770 772 774 776 778 779 780 780 780 780 780 780 780 779 780 780 780 780 780 781 781 781 781 781 781 781 780 780 779 778 777 776 775 774 773 772 770 769 768 767
701 702 702 702 702 702 703 704 706 707 709 711 714 716 717 719 720 722 724 725 726 728 730 733 735 737 739 741 744 747 749 751 754 756 758 760 761 762 763 763 764 765 766 768 769 771 773 775 776 777 778 779 779 779 779 779 779 779 779 779 779 780 780 780 780 780 780 780 780 780 780 780 779 778 777 776 775 774 773 772 770 769 768 767 766
704 705 706 706 705 705 706 708 709 710 712 714 717 719 721 723 724 725 727 728 729 731 733 734 736 738 741 743 746 748 751 752 754 756 758 759 760 762 763 764 765 767 768 770 771 772 773 774 775 777 778 778 779 779 779 779 779 779 779 779 779 779 780 780 780 780 781 780 780 780 779 779 778 777 776 775 774 773 772 771 769 768 767 766 765
708 708 708 709 708 708 709 711 712 714 715 718 720 722 724 726 728 729 731 732 733 734 736 738 739 741 743 746 748 750 752 753 755 756 758 760 762 763 764 765 767 769 770 772 773 774 774 775 776 777 778 778 779 779 779 779 779 779 779 779 780 780 780 780 780 780 780 780 780 779 779 778 778 776 775 774 773 772 771 770 768 767 766 765 764
711 711 710 710 711 712 713 715 716 718 719 721 723 726 728 730 731 733 735 736 737 738 739 741 742 744 745 748 750 752 754 755 756 758 760 762 763 765 767 768 769 771 772 773 774 775 776 776 777 777 778 778 779 779 779 780 780 780 780 781 781 781 781 780 780 780 780 780 779 779 778 777 777 775 774 773 772 771 770 769 767 766 765 764 763
715 714 713 712 713 714 716 717 719 721 723 724 726 728 731 732 734 736 737 739 740 742 743 744 746 747 748 750 752 754 756 757 759 760 761 763 765 767 769 770 772 772 773 774 776 777 777 778 778 778 779 779 779 780 780 781 781 781 782 782 782 782 781 781 780 780 779 779 779 778 778 777 776 775 773 772 772 771 769 768 766 765 764 763 762
719 718 717 716 716 717 718 720 722 724 726 727 729 732 734 735 737 739 740 741 743 745 747 748 750 751 753 754 756 757 758 760 761 763 764 765 767 769 771 772 774 774 775 776 777 778 779 779 780 780 780 780 781 781 782 782 782 782 782 782 782 781 781 780 779 779 779 778 778 778 777 776 775 774 772 771 770 769 768 767 766 765 764 762 761